Wind_Speed
43 46 36 41 43 41 38 39 41 41 47 37 41 39 35 31 26 24 20 18 17 17 20 24 20 19 17 14 14 12 18 23 18 17 14 3 5 9 8 11 10 15 15 9
55 59 43 44 41 35 32 39 37 37 41 39 41 37 32 28 27 22 20 18 15 16 18 18 16 15 16 14 12 10 15 21 12 14 17 5 9 6 5 8 12 15 13 11
37 41 34 39 31 29 30 37 35 41 40 42 39 35 29 29 24 22 20 17 15 14 13 15 13 11 12 13 12 8 13 21 15 14 12 8 4 8 4 4 6 10 13 7
27 33 29 30 29 28 28 32 33 37 42 42 37 31 30 27 24 22 18 17 16 14 11 13 13 11 10 11 9 4 5 7 11 13 9 3 6 6 6 3 11 2 14 14
31 34 33 31 29 28 29 36 35 41 41 40 35 31 29 27 23 19 19 17 16 14 11 14 15 14 13 16 7 6 4 2 5 14 3 6 3 7 6 2 17 17 11 7
28 27 30 28 30 32 34 36 39 43 39 36 31 29 28 25 21 20 19 16 15 15 13 11 15 15 12 12 8 11 14 5 1 3 12 10 12 16 12 13 12 8 6 7
25 29 30 33 33 36 37 39 40 43 37 31 28 28 26 24 22 20 17 16 15 15 15 11 11 15 10 13 12 11 13 10 12 13 12 5 21 14 12 10 7 3 2 3
31 30 34 36 40 39 39 38 43 43 32 27 29 28 26 24 22 19 16 14 15 16 15 14 13 13 12 10 12 11 11 9 12 12 11 7 11 6 6 5 4 1 2 2
34 37 38 41 40 38 38 41 45 35 30 29 30 25 25 20 20 17 16 14 15 16 14 13 14 13 12 11 10 11 13 11 12 11 9 11 7 4 4 4 4 4 3 2
40 38 40 40 39 39 40 43 41 34 31 30 27 25 23 19 18 17 15 14 15 14 14 13 14 13 13 11 9 11 11 10 11 13 12 11 9 3 1 2 3 4 2 2
38 37 37 39 41 39 40 42 40 33 31 28 26 24 21 19 17 16 14 14 14 14 13 13 13 15 15 13 10 10 15 16 14 16 18 16 10 7 7 5 5 4 3 3
35 34 36 36 40 40 40 42 40 34 30 27 25 23 21 18 17 15 14 14 13 13 14 13 13 16 17 17 12 12 12 12 16 13 15 19 16 13 10 9 8 6 6 4
36 30 33 37 41 40 41 40 37 33 28 26 24 22 20 17 17 14 12 13 13 13 14 14 14 15 21 20 15 10 10 7 8 8 10 8 8 10 10 9 7 5 3 2
36 35 33 38 42 41 41 35 34 31 25 22 22 20 18 18 15 12 12 12 13 13 14 14 14 16 17 26 21 17 13 10 7 9 8 8 8 8 7 6 5 2 0 4
37 35 34 37 41 40 35 33 33 30 27 23 21 20 18 15 12 11 11 12 11 12 13 13 15 16 17 19 27 26 23 17 13 11 9 9 8 6 6 5 3 3 6 8
39 37 37 37 36 36 33 32 30 30 24 20 19 21 16 13 11 10 11 11 11 12 11 13 13 13 15 15 16 21 27 25 22 18 14 11 8 7 7 7 8 10 11 14
38 36 36 36 36 34 31 28 28 27 24 22 21 18 14 12 11 9 11 11 11 11 11 9 8 9 9 11 12 13 17 20 21 23 20 17 13 12 13 13 13 14 16 18
35 34 35 38 38 36 32 32 31 28 24 23 20 15 13 12 9 9 11 11 11 11 12 12 11 9 8 8 9 10 11 14 17 17 18 16 16 15 13 12 12 13 14 18
33 31 35 38 39 37 35 33 29 26 24 19 18 15 13 12 9 10 10 11 12 11 12 11 11 10 8 8 9 10 13 14 13 15 14 12 11 11 11 11 10 12 15 18
31 33 37 36 34 35 35 32 28 24 23 23 20 17 13 11 10 9 10 12 13 13 14 13 13 13 14 16 16 15 14 16 16 13 14 15 14 12 11 11 10 9 12 11
33 34 32 29 32 35 33 31 29 27 25 23 18 15 11 11 10 9 11 13 13 12 13 13 13 14 15 16 15 13 13 14 15 15 17 16 13 9 8 7 7 9 8 11
30 28 30 33 35 35 33 30 28 27 25 20 17 14 11 11 10 10 11 12 12 12 12 12 13 14 14 10 10 9 9 12 15 16 17 15 12 9 6 3 4 6 9 13
33 31 33 35 36 36 34 28 25 23 20 17 15 14 12 10 10 11 11 12 11 10 11 13 15 15 8 2 3 4 9 13 13 14 14 12 9 6 3 2 5 9 12 15
34 35 35 36 36 32 27 25 25 24 21 18 14 12 12 11 11 10 11 11 11 11 12 14 14 8 7 5 1 5 3 12 13 12 10 10 8 3 2 5 8 12 16 20
36 34 35 33 29 28 27 28 26 23 19 16 15 14 12 12 12 11 12 11 11 12 12 13 9 7 9 7 5 4 2 7 11 11 9 7 5 5 7 9 12 17 21 25
37 35 34 29 28 28 26 26 23 20 18 15 13 13 13 13 11 11 12 12 16 14 11 10 7 8 10 10 8 6 5 7 8 8 7 7 8 9 10 13 17 21 25 29
35 32 29 27 27 26 25 23 21 20 19 17 17 16 15 12 11 12 13 15 15 12 10 9 10 9 11 11 9 7 8 7 7 7 9 10 11 13 16 19 23 27 30 34
Wind_Direction
224 228 239 219 218 225 231 231 231 232 236 245 232 211 198 200 212 224 233 247 263 281 287 289 292 278 286 295 299 289 316 317 335 311 334 14 329 256 263 262 283 300 312 316
212 224 218 222 227 232 227 226 231 232 233 222 210 197 193 204 213 219 234 247 262 279 288 280 285 280 294 307 287 278 305 325 334 315 323 314 272 293 281 267 285 301 290 299
224 230 224 220 223 221 225 233 232 222 214 200 192 189 198 208 211 223 237 251 264 277 282 258 269 280 292 302 307 298 305 324 337 324 320 319 252 225 224 254 286 303 304 320
208 211 214 215 219 221 219 223 213 203 196 191 188 192 201 206 215 226 237 252 264 279 283 256 260 264 265 290 315 287 341 10 358 334 314 292 218 183 176 162 320 255 123 121
202 201 199 204 213 214 216 209 196 194 189 189 190 195 204 209 217 227 240 252 269 286 289 289 264 259 275 289 305 233 173 32 3 334 236 115 244 181 172 194 124 126 123 120
188 197 202 203 204 206 200 196 192 191 187 190 191 201 207 212 219 230 241 257 275 285 294 287 260 259 266 266 276 232 194 228 221 130 99 125 162 151 190 206 166 140 88 93
195 199 200 197 198 200 202 194 191 190 187 187 198 205 210 217 223 236 247 265 280 287 292 292 285 257 257 258 232 245 240 242 233 276 277 195 132 119 124 119 145 176 32 350
194 196 197 198 196 200 200 192 192 189 184 194 202 206 210 216 226 239 253 265 276 285 288 296 295 285 262 254 235 224 233 234 253 256 260 261 197 132 139 129 114 248 296 331
196 197 201 198 197 206 195 193 194 181 187 198 206 207 213 216 229 241 251 261 273 281 284 289 294 290 265 261 253 238 223 213 234 239 236 241 239 215 170 188 191 214 237 292
199 201 202 201 207 204 195 197 187 183 186 201 206 210 215 220 233 246 253 261 273 282 284 289 288 280 262 274 249 251 211 185 225 224 221 220 203 204 237 205 219 231 212 208
201 201 205 206 208 197 199 199 190 183 193 199 207 210 216 226 238 249 255 262 276 282 281 278 282 262 262 262 252 247 215 203 199 211 220 216 211 193 205 215 196 208 204 204
197 201 208 210 201 201 202 199 192 188 194 200 206 209 217 228 242 254 262 270 278 285 280 277 274 253 251 253 252 246 252 240 228 212 216 224 227 222 215 224 224 227 239 239
198 196 205 205 205 203 205 206 196 193 193 199 206 210 218 233 248 260 269 278 286 285 280 275 271 266 241 247 233 223 233 240 251 224 196 195 202 208 217 223 220 218 232 300
197 201 202 206 205 204 208 207 201 197 190 199 206 211 220 237 252 264 274 283 288 286 280 276 273 273 253 237 240 238 234 242 244 249 233 217 211 199 197 194 195 184 34 358
191 193 201 204 207 205 208 218 206 194 194 201 203 209 220 236 254 268 280 289 286 285 283 282 278 273 262 249 240 239 244 248 243 246 231 222 222 225 223 226 227 292 312 320
194 196 198 202 205 206 212 212 204 192 194 201 205 212 221 238 254 273 285 291 288 286 286 286 282 276 269 259 253 245 242 247 249 247 256 252 261 261 273 273 284 296 308 309
186 189 197 203 209 209 211 205 196 190 194 202 202 204 214 232 256 274 286 283 282 281 277 284 291 297 285 268 260 254 246 245 248 252 256 259 265 280 283 284 286 291 295 294
183 194 201 208 213 213 212 201 192 191 195 201 201 204 219 239 256 276 280 278 277 272 265 269 284 294 297 287 276 259 253 245 238 243 251 260 263 273 279 284 289 290 293 300
183 196 199 204 209 207 199 194 189 193 198 197 201 208 217 234 254 273 278 275 271 267 266 266 271 276 279 285 285 272 251 246 244 231 220 229 240 254 263 268 275 289 296 298
181 191 191 193 191 195 194 191 190 193 197 194 197 206 212 237 253 262 269 270 269 265 266 269 273 280 280 282 282 275 262 242 236 225 212 205 205 214 229 248 272 287 299 303
189 195 194 192 186 190 190 190 192 193 196 199 203 210 222 240 249 259 266 270 273 275 274 277 280 281 285 291 287 282 259 235 224 213 205 210 210 216 250 263 268 283 290 299
186 193 192 186 190 195 192 192 191 194 196 198 203 212 224 235 247 252 266 271 274 278 283 288 289 290 299 291 292 278 242 214 210 210 202 211 221 246 258 259 266 293 304 309
177 183 188 192 197 197 197 191 190 196 199 198 203 208 219 233 246 256 269 272 270 275 283 287 292 298 277 240 5 311 217 198 196 191 195 205 219 237 224 290 304 306 307 316
190 196 198 194 193 192 184 182 190 195 199 198 209 215 221 231 243 258 268 264 262 270 283 296 302 280 215 197 176 34 128 187 185 188 196 204 219 210 260 285 297 314 322 324
199 198 198 194 184 178 182 184 193 200 207 210 214 218 222 230 243 257 262 258 253 269 280 301 292 260 217 216 237 261 220 168 181 191 200 202 207 236 263 288 309 319 321 319
190 194 191 180 175 177 177 189 201 207 215 216 215 221 221 227 240 255 253 252 258 265 276 289 270 271 226 221 238 253 219 189 182 187 195 211 231 256 280 299 309 312 316 316
190 186 181 176 177 180 185 194 204 211 215 213 211 209 217 229 236 239 245 252 264 265 266 265 256 252 229 228 240 233 212 204 198 208 224 240 259 277 290 299 306 310 313 316
Height
5495 5505 5514 5526 5532 5539 5546 5552 5558 5563 5571 5576 5580 5584 5590 5596 5602 5606 5608 5609 5609 5607 5606 5602 5599 5599 5597 5595 5594 5592 5590 5587 5582 5579 5575 5573 5571 5570 5569 5569 5571 5567 5565 5568
5491 5497 5508 5517 5526 5533 5538 5542 5549 5554 5561 5567 5572 5578 5585 5591 5596 5599 5602 5603 5603 5602 5600 5597 5595 5594 5593 5591 5590 5587 5587 5584 5580 5578 5575 5572 5570 5570 5569 5569 5569 5568 5568 5569
5487 5495 5501 5511 5519 5526 5531 5537 5541 5547 5552 5560 5567 5573 5580 5586 5591 5595 5596 5597 5597 5597 5595 5593 5592 5591 5589 5589 5586 5583 5583 5581 5577 5575 5573 5571 5569 5569 5569 5569 5569 5569 5569 5569
5482 5490 5498 5505 5512 5517 5525 5530 5536 5544 5549 5555 5563 5569 5576 5583 5587 5590 5591 5591 5591 5591 5590 5589 5587 5587 5585 5585 5584 5582 5581 5581 5577 5572 5569 5568 5567 5568 5569 5571 5569 5568 5570 5571
5477 5486 5492 5498 5507 5513 5520 5527 5533 5539 5545 5552 5559 5566 5573 5579 5582 5585 5585 5586 5586 5586 5586 5584 5584 5583 5582 5581 5581 5581 5580 5580 5579 5573 5570 5568 5568 5569 5570 5572 5572 5571 5572 5573
5473 5481 5486 5495 5502 5509 5514 5522 5529 5536 5542 5550 5557 5564 5569 5573 5577 5579 5580 5581 5582 5582 5582 5581 5580 5580 5579 5579 5578 5578 5579 5578 5580 5578 5575 5568 5569 5570 5572 5574 5574 5574 5574 5575
5470 5476 5484 5491 5497 5506 5512 5520 5527 5534 5541 5547 5554 5560 5565 5568 5573 5575 5576 5577 5578 5578 5577 5577 5576 5576 5576 5576 5576 5576 5576 5576 5577 5577 5576 5577 5572 5571 5573 5573 5573 5574 5574 5575
5467 5474 5481 5488 5494 5502 5509 5517 5525 5532 5539 5545 5550 5556 5561 5566 5570 5571 5571 5574 5574 5573 5573 5572 5571 5572 5573 5573 5573 5573 5573 5573 5573 5575 5574 5575 5573 5572 5572 5572 5573 5574 5574 5575
5464 5471 5480 5485 5492 5499 5509 5515 5523 5529 5536 5542 5547 5554 5559 5563 5565 5566 5569 5570 5570 5570 5568 5568 5568 5567 5569 5571 5570 5569 5570 5570 5571 5571 5572 5573 5573 5572 5572 5572 5574 5575 5574 5573
5463 5470 5478 5482 5490 5499 5507 5513 5519 5526 5532 5538 5545 5551 5556 5558 5561 5562 5565 5566 5566 5566 5565 5565 5565 5564 5565 5567 5567 5567 5567 5568 5568 5568 5570 5571 5572 5572 5572 5574 5577 5574 5574 5574
5460 5467 5475 5481 5489 5498 5504 5511 5517 5524 5530 5537 5542 5547 5552 5555 5557 5560 5561 5562 5562 5562 5562 5562 5561 5561 5563 5564 5564 5564 5564 5565 5565 5565 5566 5569 5570 5571 5573 5573 5572 5574 5574 5574
5458 5466 5472 5480 5489 5495 5502 5509 5514 5520 5529 5535 5540 5544 5548 5551 5553 5556 5556 5558 5558 5558 5557 5558 5558 5558 5560 5561 5562 5562 5563 5562 5562 5563 5562 5564 5565 5567 5569 5570 5571 5571 5573 5573
5455 5462 5470 5479 5486 5493 5500 5507 5512 5519 5525 5533 5538 5542 5545 5547 5551 5551 5553 5554 5554 5554 5554 5554 5554 5554 5556 5557 5559 5559 5559 5559 5559 5559 5559 5560 5562 5563 5565 5566 5567 5568 5569 5568
5450 5459 5468 5476 5483 5491 5499 5506 5511 5518 5525 5530 5536 5539 5542 5545 5547 5548 5549 5550 5551 5551 5550 5550 5550 5551 5552 5553 5555 5556 5557 5557 5557 5558 5558 5559 5560 5561 5563 5564 5565 5566 5566 5566
5448 5457 5465 5473 5482 5490 5497 5503 5508 5515 5523 5527 5532 5535 5539 5541 5543 5544 5546 5546 5547 5547 5546 5546 5546 5546 5546 5547 5549 5551 5553 5554 5555 5556 5557 5558 5559 5559 5559 5560 5561 5562 5562 5562
5445 5454 5462 5471 5479 5487 5494 5500 5507 5513 5519 5526 5529 5533 5536 5538 5540 5541 5542 5543 5543 5543 5543 5542 5542 5542 5542 5542 5543 5545 5547 5549 5551 5552 5553 5554 5555 5556 5556 5556 5557 5558 5558 5558
5442 5451 5460 5468 5477 5484 5492 5500 5506 5510 5517 5522 5526 5529 5532 5535 5537 5538 5539 5539 5540 5540 5540 5540 5540 5539 5539 5539 5540 5541 5542 5544 5546 5548 5549 5551 5552 5553 5553 5554 5554 5554 5554 5555
5441 5449 5458 5466 5474 5483 5489 5495 5501 5507 5513 5519 5523 5527 5530 5532 5533 5535 5536 5536 5536 5537 5537 5538 5537 5537 5536 5536 5537 5537 5538 5539 5541 5543 5545 5547 5548 5549 5550 5551 5551 5552 5552 5551
5440 5449 5456 5464 5471 5479 5486 5492 5499 5505 5513 5516 5520 5523 5526 5528 5530 5533 5533 5533 5534 5534 5535 5535 5535 5534 5534 5534 5534 5534 5534 5536 5537 5539 5541 5543 5545 5546 5547 5548 5548 5548 5547 5547
5440 5447 5455 5461 5469 5476 5483 5490 5496 5503 5508 5512 5516 5519 5523 5526 5528 5529 5531 5531 5531 5531 5532 5531 5531 5531 5530 5530 5529 5529 5529 5530 5533 5535 5537 5539 5541 5542 5544 5544 5544 5544 5543 5542
5438 5445 5454 5462 5469 5474 5481 5487 5494 5500 5505 5509 5513 5516 5519 5522 5525 5526 5527 5527 5528 5528 5529 5528 5528 5527 5526 5525 5523 5523 5523 5525 5528 5531 5534 5536 5538 5539 5540 5540 5540 5540 5540 5541
5439 5447 5454 5461 5466 5472 5479 5485 5491 5497 5502 5507 5510 5514 5517 5520 5522 5523 5524 5525 5525 5525 5525 5525 5524 5523 5522 5520 5519 5518 5518 5520 5524 5527 5530 5533 5535 5536 5536 5536 5537 5538 5538 5537
5438 5444 5451 5457 5463 5470 5478 5484 5491 5496 5501 5505 5508 5512 5514 5517 5520 5521 5522 5522 5523 5523 5523 5522 5521 5520 5519 5519 5518 5516 5516 5518 5521 5524 5528 5530 5532 5533 5534 5534 5535 5535 5535 5533
5437 5443 5449 5455 5462 5471 5479 5484 5489 5494 5497 5501 5505 5508 5512 5514 5516 5518 5519 5520 5521 5520 5521 5520 5518 5516 5517 5518 5518 5517 5516 5518 5521 5524 5526 5528 5530 5530 5531 5532 5532 5532 5530 5527
5436 5443 5449 5457 5466 5473 5477 5482 5486 5491 5495 5499 5502 5506 5509 5511 5513 5515 5516 5517 5517 5518 5518 5518 5516 5516 5517 5518 5518 5518 5518 5519 5521 5523 5525 5526 5527 5528 5529 5529 5528 5526 5524 5522
5436 5444 5450 5459 5466 5472 5477 5480 5484 5488 5492 5497 5501 5503 5506 5509 5511 5512 5513 5514 5514 5516 5517 5516 5515 5515 5516 5517 5517 5518 5518 5519 5521 5522 5523 5524 5525 5526 5526 5524 5523 5521 5518 5514
5437 5444 5451 5458 5465 5470 5475 5479 5482 5485 5490 5494 5497 5500 5503 5506 5508 5509 5509 5511 5512 5513 5514 5514 5514 5514 5514 5516 5516 5517 5518 5519 5520 5521 5522 5522 5523 5522 5521 5519 5517 5514 5510 5506